This is the latest recevied weather packets stored in our database for station/object AD8BV. If no packets are shown the sender has not sent any weather packets the latest 1 day(s).
| Time | Temp. | Humidity | Pressure | Rain* | Wind** | Luminosity | Snow |
|---|---|---|---|---|---|---|---|
| 1778011372 | 12.78° C | 53% | 1009.6 hPa | 0 mm | 0.89 m/s, 259° | 134 W/m² | - |
| 1778011067 | 12.78° C | 53% | 1009.7 hPa | 0 mm | 0.45 m/s, 301° | 166 W/m² | - |
| 1778010765 | 12.78° C | 55% | 1009.5 hPa | 0 mm | 0.89 m/s, 296° | 190 W/m² | - |
| 1778010462 | 12.78° C | 58% | 1009.7 hPa | 0 mm | 0.45 m/s, 270° | 207 W/m² | - |
| 1778010159 | 12.22° C | 56% | 1009.4 hPa | 0 mm | 0.45 m/s, 249° | 249 W/m² | - |
| 1778009854 | 12.22° C | 56% | 1009.6 hPa | 0 mm | 0.89 m/s, 183° | 184 W/m² | - |
| 1778009552 | 12.22° C | 58% | 1009.6 hPa | 0 mm | 0 m/s | 152 W/m² | - |
| 1778009250 | 12.22° C | 56% | 1009.9 hPa | 0 mm | 1.34 m/s, 269° | 108 W/m² | - |
| 1778008948 | 12.22° C | 57% | 1009.7 hPa | 0 mm | 0 m/s | 99 W/m² | - |
| 1778008646 | 12.22° C | 57% | 1009.7 hPa | 0 mm | 0.89 m/s, 292° | 92 W/m² | - |
| 1778008344 | 12.22° C | 62% | 1009.6 hPa | 0 mm | 0.45 m/s, 256° | 97 W/m² | - |
| 1778008040 | 12.22° C | 58% | 1009.7 hPa | 0 mm | 0 m/s | 102 W/m² | - |
| 1778007739 | 12.22° C | 61% | 1009.8 hPa | 0 mm | 0 m/s | 138 W/m² | - |
| 1778007436 | 12.78° C | 58% | 1009.7 hPa | 0 mm | 0.45 m/s, 278° | 136 W/m² | - |
| 1778007133 | 12.78° C | 61% | 1009.9 hPa | 0 mm | 0.45 m/s, 295° | 162 W/m² | - |
| 1778006829 | 12.22° C | 65% | 1009.8 hPa | 0 mm | 0.45 m/s, 267° | 206 W/m² | - |
| 1778006527 | 12.78° C | 62% | 1009.7 hPa | 0 mm | 0 m/s | 163 W/m² | - |
| 1778006223 | 12.78° C | 60% | 1009.8 hPa | 0 mm | 1.34 m/s, 275° | 175 W/m² | - |
| 1778005921 | 12.78° C | 63% | 1010 hPa | 0 mm | 0.45 m/s, 270° | 200 W/m² | - |
| 1778005616 | 12.78° C | 61% | 1009.7 hPa | 0 mm | 0.45 m/s, 252° | 232 W/m² | - |
| 1778005314 | 13.33° C | 61% | 1009.7 hPa | 0 mm | 0.89 m/s, 248° | 303 W/m² | - |
| 1778005010 | 12.78° C | 64% | 1009.9 hPa | 0 mm | 0.89 m/s, 273° | 347 W/m² | - |
| 1778004708 | 12.22° C | 64% | 1009.6 hPa | 0 mm | 0.45 m/s, 276° | 393 W/m² | - |
| 1778004404 | 12.22° C | 64% | 1009.6 hPa | 0 mm | 0 m/s | 198 W/m² | - |
| 1778004101 | 12.22° C | 65% | 1009.4 hPa | 0 mm | 0.89 m/s, 320° | 165 W/m² | - |
* Rain latest hour (hover to see other rain measurements)
** Current wind speed in m/s (hover to see current wind gust speed)